OBJECT C, 69504

Orbit data source: Space-Track

You're viewing an Uncataloged Satellite

Recently launched and/or uncataloged satellites may have evolving metadata. Metadata may include but not limited to: Owner, Maufacturer, Bus, Motor, and Mission.

OBJECT C, 69504 is a satellite in SSO that was launched on Fri, 12 Jun 2026 UTC via a H3-30S launch vehicle from the Tanegashima Space Center (TNSTA). Unknown objects in Earth's orbit typically refer to objects detected orbiting the Earth but have not yet been identified or cataloged. These objects could be anything from previously untracked satellites, spent rocket stages, debris from satellite collisions, or even natural meteoroids temporarily captured by Earth's gravity.

Loading next visibility...
Identifier
69504, 2026-132C
Orbit
SSO
Country
Flag of TBDTBD
Related business
None
Manufacturer
Unknown
Mission
Operational spacecraft
Bus & Motor
Unknown
Mass
Unknown
Launch date (UTC)
2026-06-12 (1 day ago)
Launch vehicle
H3-30S
Launch site
Tanegashima Space Center (TNSTA)
Object type
Unknown
Shape & HBR
Unknown
Radar Cross Section
RCS unknown

Expand to show TLE details & history
Last TLE update: 9 hours ago

TLE from 9 hours ago
0 OBJECT C
1 69504U 26132C   26164.41643089  .00001589  00000-0  13327-3 0  9994
2 69504  97.6892 228.1405 0013636 299.3208  60.6653 14.99753351   217
Epoch: 2026-06-13T09:59Z
TLE epoch observation values (Epoch: 2026-06-13T09:59:39.628Z)
Latitude
0.00001°
Longitude
176.49355°
Altitude
566.081 km
Speed
7.581 km/s
True Right ascension
15h 12m 33s
True Declination
0° 00' 00"
Sunlit
Object was in full shadow at epoch
Visualization orbit readout
Latitude
Unknown
Longitude
Unknown
Altitude
Unknown
Speed
Unknown
Apparent Right ascension
Unknown
Apparent Declination
Unknown
Sunlit
N/A
Visualization observer readout
Local Sidereal Time
04:58:02
Azimuth
Unknown
Elevation
Unknown
Doppler factor
Unknown
Orbital elements
Apogee altitude
574.13 km
Perigee altitude
555.196 km
Semi-major axis
6,942.8 km
Eccentricity
0.00136
Inclination
97.6892°
RAAN
228.1405°
Arg. of periapsis
299.3208°
True anomaly
60.80163°
Mean anomaly
60.6653°
Eccentric anomaly
60.73346°
Mean motion
3.75181 °/min
Orbital period
95.95 mins
BSTAR
0.00013327
Loading maneuver chart data...
Computing Atmospheric mass density...
Loading historical data...
Loading historical data...
Loading historical data...
Loading historical data...
Loading historical data...
Loading historical data...
Loading historical data...
Other satellites on launch #132 in the year 2026 (2026-06-12 UTC)

Documentation

Showing up to 5 results
|